User: anonymous   Login
Location: downtown San Diego
(32.7310°N, 117.1990°W)
Time: 10:30:57
(UTC-07:00)
Language:

YAOGAN 6 - Orbit

View from above orbital plane
View from above orbital plane
View from above satellite
View from above satellite

Ground track
Ground track

The orbit data is extracted from the following two-line orbital elements,

1 34839U 09021A   19292.09940366  .00000350  00000-0  15778-4 0  9999
2 34839  97.0487 309.1939 0028573 161.2661 198.9638 15.26677191582831
Epoch (UTC): 19 October 2019 02:23:08
Eccentricity: 0.0028573
inclination: 97.0487°
perigee height: 466 km
apogee height: 505 km
right ascension of ascending node: 309.1939°
argument of perigee: 161.2661°
revolutions per day: 15.26677191
mean anomaly at epoch: 198.9638°
orbit number at epoch: 58283

The dashed part of the orbit path shows where the satellite is in the earth's shadow,  

DLR